STARLINK-31090 (58640 NORAD) Tracking and Keplerian Element Data

This shows tracking and keplerian element data for the satellite.

Feedback or suggestion? Click here.




ElementValue
Catalog58640
NameSTARLINK-31090
Epoch Orbit443
Epoch Day12.00001157
Epoch Year2024
RAAN191.1465
Inclination43.0006
Eccentricity6.59E-05
Argument of Perigee329.9316
Mean Anonmoly110.7524
Mean Motion15.61353553
Decay Rate0.00163474
L11 58640U 23203Y 24012.00001157 .00163474 00000+0 18347-2 0 9995
L22 58640 43.0006 191.1465 0000659 329.9316 110.7524 15.61353553 4436



Live tracking and technical data element details for STARLINK-31090 (NORAD 58640). STARLINK-31090 can be tracked NOW for your location showing map with azimuth and elevation plus other details from your city location.







IsCatalogInMostPopularTable: catalog: 58640, numindb: 23
Update: records affected: 1



GetName: 58640 STARLINK-31090

Hit Count: updated at: Wed, 17 Apr 2024 03:36:07 GMT